Time,TemperatureF,DewpointF,PressureIn,WindDirection,WindDirectionDegrees,WindSpeedMPH,WindSpeedGustMPH,Humidity,HourlyPrecipIn,Conditions,Clouds,dailyrainin,SoftwareType,DateUTC
2013-04-15 00:03:00,71.0,64.0,29.97,NNE,19,2.0,8.0,79,0.00,,,0.00,,2013-04-15 04:03:00,
2013-04-15 00:13:00,71.0,64.0,29.97,NNE,19,2.0,8.0,79,0.00,,,0.00,,2013-04-15 04:13:00,
2013-04-15 00:23:00,71.0,64.0,29.96,WNW,296,1.0,8.0,79,0.00,,,0.00,,2013-04-15 04:23:00,
2013-04-15 00:33:00,71.0,63.0,29.96,ENE,58,2.0,7.0,75,0.00,,,0.00,,2013-04-15 04:33:00,
2013-04-15 00:43:00,71.0,63.0,29.96,ENE,58,2.0,7.0,75,0.00,,,0.00,,2013-04-15 04:43:00,
2013-04-15 00:52:00,71.0,63.0,29.96,NNE,24,0.0,1.0,75,0.00,,,0.00,,2013-04-15 04:52:00,
2013-04-15 01:03:00,71.0,63.0,29.95,NNE,32,3.0,6.0,75,0.00,,,0.00,,2013-04-15 05:03:00,
2013-04-15 01:13:00,71.0,63.0,29.95,NNE,32,3.0,6.0,75,0.00,,,0.00,,2013-04-15 05:13:00,
2013-04-15 01:23:00,71.0,62.0,29.95,NNE,22,0.0,4.0,74,0.00,,,0.00,,2013-04-15 05:23:00,
2013-04-15 01:33:00,71.0,63.0,29.95,NNE,30,1.0,4.0,75,0.00,,,0.00,,2013-04-15 05:33:00,
2013-04-15 01:42:00,71.0,63.0,29.95,NNE,30,1.0,4.0,75,0.00,,,0.00,,2013-04-15 05:42:00,
2013-04-15 01:53:00,71.0,62.0,29.94,NE,42,0.0,4.0,74,0.00,,,0.00,,2013-04-15 05:53:00,
2013-04-15 02:02:00,71.0,62.0,29.94,NNE,13,0.0,4.0,73,0.00,,,0.00,,2013-04-15 06:02:00,
2013-04-15 02:12:00,71.0,62.0,29.94,NNE,13,0.0,4.0,73,0.00,,,0.00,,2013-04-15 06:12:00,
2013-04-15 02:23:00,72.0,63.0,29.94,East,86,0.0,0.0,74,0.00,,,0.00,,2013-04-15 06:23:00,
2013-04-15 02:33:00,72.0,64.0,29.94,East,86,0.0,1.0,75,0.00,,,0.00,,2013-04-15 06:33:00,
2013-04-15 02:42:00,72.0,64.0,29.94,East,86,0.0,1.0,75,0.00,,,0.00,,2013-04-15 06:42:00,
2013-04-15 02:53:00,71.0,63.0,29.94,East,86,0.0,0.0,75,0.00,,,0.00,,2013-04-15 06:53:00,
2013-04-15 03:03:00,71.0,63.0,29.94,East,86,0.0,0.0,76,0.00,,,0.00,,2013-04-15 07:03:00,
2013-04-15 03:41:00,71.0,63.0,29.94,East,86,0.0,0.0,76,0.00,,,0.00,,2013-04-15 07:41:00,
2013-04-15 03:42:00,71.0,63.0,29.93,East,86,0.0,1.0,77,0.00,,,0.00,,2013-04-15 07:42:00,
2013-04-15 03:54:00,70.0,64.0,29.94,South,173,0.0,0.0,80,0.00,,,0.00,,2013-04-15 07:54:00,
2013-04-15 04:03:00,70.0,64.0,29.93,South,173,0.0,0.0,80,0.00,,,0.00,,2013-04-15 08:03:00,
2013-04-15 04:13:00,70.0,64.0,29.93,South,173,0.0,0.0,80,0.00,,,0.00,,2013-04-15 08:13:00,
2013-04-15 04:22:00,70.0,63.0,29.93,South,173,0.0,0.0,79,0.00,,,0.00,,2013-04-15 08:22:00,
2013-04-15 04:34:00,70.0,63.0,29.93,ESE,117,0.0,1.0,79,0.00,,,0.00,,2013-04-15 08:34:00,
2013-04-15 04:42:00,70.0,63.0,29.93,ESE,117,0.0,1.0,79,0.00,,,0.00,,2013-04-15 08:42:00,
2013-04-15 04:52:00,70.0,63.0,29.93,ESE,117,0.0,2.0,79,0.00,,,0.00,,2013-04-15 08:52:00,
2013-04-15 05:03:00,70.0,64.0,29.94,ESE,117,0.0,0.0,80,0.00,,,0.00,,2013-04-15 09:03:00,
2013-04-15 05:12:00,70.0,64.0,29.94,ESE,117,0.0,0.0,80,0.00,,,0.00,,2013-04-15 09:12:00,
2013-04-15 05:23:00,70.0,64.0,29.93,ESE,117,0.0,1.0,81,0.00,,,0.00,,2013-04-15 09:23:00,
2013-04-15 05:33:00,70.0,64.0,29.93,ESE,117,0.0,1.0,81,0.00,,,0.00,,2013-04-15 09:33:00,
2013-04-15 05:43:00,70.0,64.0,29.93,ESE,117,0.0,1.0,81,0.00,,,0.00,,2013-04-15 09:43:00,
2013-04-15 05:53:00,70.0,64.0,29.93,ESE,117,0.0,1.0,81,0.00,,,0.00,,2013-04-15 09:53:00,
2013-04-15 06:02:00,69.0,64.0,29.93,SE,145,0.0,1.0,83,0.00,,,0.00,,2013-04-15 10:02:00,
2013-04-15 06:13:00,69.0,64.0,29.93,SE,145,0.0,1.0,83,0.00,,,0.00,,2013-04-15 10:13:00,
2013-04-15 06:23:00,69.0,64.0,29.93,SSE,153,0.0,2.0,83,0.00,,,0.00,,2013-04-15 10:23:00,
2013-04-15 06:33:00,69.0,64.0,29.94,SE,146,0.0,3.0,83,0.00,,,0.00,,2013-04-15 10:33:00,
2013-04-15 06:42:00,69.0,64.0,29.94,SE,146,0.0,3.0,83,0.00,,,0.00,,2013-04-15 10:42:00,
2013-04-15 06:53:00,69.0,63.0,29.94,SE,132,0.0,2.0,82,0.00,,,0.00,,2013-04-15 10:53:00,
2013-04-15 07:03:00,69.0,64.0,29.94,SSE,148,0.0,2.0,83,0.00,,,0.00,,2013-04-15 11:03:00,
2013-04-15 07:13:00,69.0,64.0,29.94,SSE,148,0.0,2.0,83,0.00,,,0.00,,2013-04-15 11:13:00,
2013-04-15 07:23:00,69.0,64.0,29.95,SSW,195,0.0,2.0,83,0.00,,,0.00,,2013-04-15 11:23:00,
2013-04-15 07:32:00,69.0,63.0,29.95,SE,136,1.0,3.0,82,0.00,,,0.00,,2013-04-15 11:32:00,
2013-04-15 07:43:00,69.0,63.0,29.95,SE,136,1.0,3.0,82,0.00,,,0.00,,2013-04-15 11:43:00,
2013-04-15 07:54:00,69.0,63.0,29.95,SSE,152,1.0,4.0,82,0.00,,,0.00,,2013-04-15 11:54:00,
2013-04-15 08:04:00,70.0,64.0,29.95,SSW,202,2.0,8.0,82,0.00,,,0.00,,2013-04-15 12:04:00,
2013-04-15 08:14:00,70.0,64.0,29.95,SSW,202,2.0,8.0,82,0.00,,,0.00,,2013-04-15 12:14:00,
2013-04-15 08:23:00,70.0,64.0,29.94,SSW,194,1.0,6.0,80,0.00,,,0.00,,2013-04-15 12:23:00,
2013-04-15 08:33:00,70.0,63.0,29.93,WSW,247,2.0,7.0,78,0.00,,,0.00,,2013-04-15 12:33:00,
2013-04-15 08:43:00,70.0,63.0,29.93,WSW,247,2.0,7.0,78,0.00,,,0.00,,2013-04-15 12:43:00,
2013-04-15 08:53:00,71.0,63.0,29.92,SSE,150,3.0,9.0,77,0.00,,,0.00,,2013-04-15 12:53:00,
2013-04-15 09:04:00,72.0,64.0,29.93,East,96,0.0,10.0,75,0.00,,,0.00,,2013-04-15 13:04:00,
2013-04-15 09:13:00,72.0,64.0,29.93,East,96,0.0,10.0,75,0.00,,,0.00,,2013-04-15 13:13:00,
2013-04-15 09:23:00,73.0,64.0,29.96,NNE,24,0.0,9.0,73,0.00,,,0.00,,2013-04-15 13:23:00,
2013-04-15 09:33:00,74.0,64.0,29.95,SSE,155,0.0,0.0,71,0.00,,,0.00,,2013-04-15 13:33:00,
2013-04-15 09:43:00,74.0,64.0,29.95,SSE,155,0.0,0.0,71,0.00,,,0.00,,2013-04-15 13:43:00,
2013-04-15 09:54:00,75.0,65.0,29.96,East,82,0.0,0.0,70,0.00,,,0.00,,2013-04-15 13:54:00,
2013-04-15 10:05:00,76.0,65.0,29.96,SE,128,0.0,3.0,70,0.00,,,0.00,,2013-04-15 14:05:00,
2013-04-15 10:13:00,76.0,65.0,29.96,SE,128,0.0,3.0,70,0.00,,,0.00,,2013-04-15 14:13:00,
2013-04-15 10:23:00,77.0,65.0,29.95,SE,144,3.0,7.0,66,0.00,,,0.00,,2013-04-15 14:23:00,
2013-04-15 10:33:00,79.0,65.0,29.96,SW,219,0.0,6.0,63,0.00,,,0.00,,2013-04-15 14:33:00,
2013-04-15 10:44:00,79.0,65.0,29.96,SW,219,0.0,6.0,63,0.00,,,0.00,,2013-04-15 14:44:00,
2013-04-15 10:55:00,81.0,66.0,29.96,South,173,2.0,5.0,61,0.00,,,0.00,,2013-04-15 14:55:00,
2013-04-15 11:03:00,82.0,65.0,29.96,SSW,194,4.0,9.0,57,0.00,,,0.00,,2013-04-15 15:03:00,
2013-04-15 11:13:00,82.0,65.0,29.96,SSW,194,4.0,9.0,57,0.00,,,0.00,,2013-04-15 15:13:00,
2013-04-15 11:24:00,82.0,66.0,29.97,SE,146,3.0,6.0,58,0.00,,,0.00,,2013-04-15 15:24:00,
2013-04-15 11:35:00,82.0,67.0,29.97,ESE,107,0.0,6.0,60,0.00,,,0.00,,2013-04-15 15:35:00,
2013-04-15 11:44:00,82.0,67.0,29.97,ESE,107,0.0,6.0,60,0.00,,,0.00,,2013-04-15 15:44:00,
2013-04-15 11:55:00,84.0,68.0,29.97,SE,132,2.0,4.0,58,0.00,,,0.00,,2013-04-15 15:55:00,
2013-04-15 12:05:00,85.0,70.0,29.97,SSE,163,0.0,4.0,60,0.00,,,0.00,,2013-04-15 16:05:00,
2013-04-15 12:14:00,85.0,70.0,29.97,SSE,163,0.0,4.0,60,0.00,,,0.00,,2013-04-15 16:14:00,
2013-04-15 12:25:00,84.0,69.0,29.97,SSE,161,0.0,9.0,61,0.00,,,0.00,,2013-04-15 16:25:00,
2013-04-15 12:33:00,85.0,71.0,29.98,North,5,0.0,4.0,63,0.00,,,0.00,,2013-04-15 16:33:00,
2013-04-15 12:44:00,85.0,71.0,29.98,North,5,0.0,4.0,63,0.00,,,0.00,,2013-04-15 16:44:00,
2013-04-15 12:54:00,86.0,72.0,29.97,WNW,302,1.0,3.0,64,0.00,,,0.00,,2013-04-15 16:54:00,
2013-04-15 13:04:00,87.0,71.0,29.97,WNW,295,2.0,6.0,59,0.00,,,0.00,,2013-04-15 17:04:00,
2013-04-15 13:15:00,87.0,71.0,29.97,WNW,295,2.0,6.0,59,0.00,,,0.00,,2013-04-15 17:15:00,
2013-04-15 13:22:00,88.0,72.0,29.96,NNW,344,2.0,5.0,59,0.00,,,0.00,,2013-04-15 17:22:00,
2013-04-15 13:33:00,89.0,73.0,29.96,NNW,340,3.0,5.0,59,0.00,,,0.00,,2013-04-15 17:33:00,
2013-04-15 13:43:00,89.0,73.0,29.96,NNW,340,3.0,5.0,59,0.00,,,0.00,,2013-04-15 17:43:00,
2013-04-15 13:53:00,88.0,71.0,29.96,NW,326,1.0,4.0,57,0.00,,,0.00,,2013-04-15 17:53:00,
2013-04-15 14:03:00,87.0,73.0,29.96,NW,313,1.0,11.0,64,0.00,,,0.00,,2013-04-15 18:03:00,
2013-04-15 14:13:00,87.0,73.0,29.96,NW,313,1.0,11.0,64,0.00,,,0.00,,2013-04-15 18:13:00,
2013-04-15 14:24:00,88.0,72.0,29.96,WNW,295,2.0,8.0,59,0.00,,,0.00,,2013-04-15 18:24:00,
2013-04-15 14:33:00,87.0,71.0,29.96,West,263,6.0,10.0,60,0.00,,,0.00,,2013-04-15 18:33:00,
2013-04-15 14:42:00,87.0,71.0,29.96,West,263,6.0,10.0,60,0.00,,,0.00,,2013-04-15 18:42:00,
2013-04-15 14:52:00,86.0,70.0,29.96,NW,314,5.0,10.0,60,0.00,,,0.00,,2013-04-15 18:52:00,
2013-04-15 15:02:00,87.0,72.0,29.96,West,267,4.0,7.0,61,0.00,,,0.00,,2013-04-15 19:02:00,
2013-04-15 15:12:00,87.0,72.0,29.96,West,267,4.0,7.0,61,0.00,,,0.00,,2013-04-15 19:12:00,
2013-04-15 15:22:00,87.0,71.0,29.96,WNW,282,3.0,6.0,59,0.00,,,0.00,,2013-04-15 19:22:00,
2013-04-15 15:38:00,87.0,70.0,29.95,West,268,4.0,8.0,58,0.00,,,0.00,,2013-04-15 19:38:00,
2013-04-15 16:01:00,88.0,73.0,29.94,WSW,258,3.0,8.0,61,0.00,,,0.00,,2013-04-15 20:01:00,
2013-04-15 16:02:00,88.0,72.0,29.94,West,260,3.0,9.0,60,0.00,,,0.00,,2013-04-15 20:02:00,
2013-04-15 16:11:00,88.0,72.0,29.94,West,260,3.0,9.0,60,0.00,,,0.00,,2013-04-15 20:11:00,
2013-04-15 16:22:00,87.0,72.0,29.93,WNW,289,5.0,9.0,61,0.00,,,0.00,,2013-04-15 20:22:00,
2013-04-15 16:32:00,87.0,72.0,29.93,WNW,296,3.0,9.0,61,0.00,,,0.00,,2013-04-15 20:32:00,
2013-04-15 16:42:00,87.0,72.0,29.93,WNW,296,3.0,9.0,61,0.00,,,0.00,,2013-04-15 20:42:00,
2013-04-15 16:52:00,86.0,72.0,29.93,WNW,298,6.0,12.0,63,0.00,,,0.00,,2013-04-15 20:52:00,
2013-04-15 17:02:00,85.0,72.0,29.93,NW,304,5.0,10.0,66,0.00,,,0.00,,2013-04-15 21:02:00,
2013-04-15 17:12:00,85.0,72.0,29.93,NW,304,5.0,10.0,66,0.00,,,0.00,,2013-04-15 21:12:00,
2013-04-15 17:22:00,84.0,71.0,29.93,West,271,6.0,12.0,66,0.00,,,0.00,,2013-04-15 21:22:00,
2013-04-15 17:33:00,84.0,71.0,29.94,West,259,4.0,10.0,65,0.00,,,0.00,,2013-04-15 21:33:00,
2013-04-15 17:43:00,84.0,71.0,29.94,West,259,4.0,10.0,65,0.00,,,0.00,,2013-04-15 21:43:00,
2013-04-15 17:53:00,84.0,71.0,29.94,West,275,5.0,9.0,66,0.00,,,0.00,,2013-04-15 21:53:00,
2013-04-15 18:02:00,84.0,71.0,29.94,West,259,6.0,9.0,65,0.00,,,0.00,,2013-04-15 22:02:00,
2013-04-15 18:13:00,84.0,71.0,29.94,West,259,6.0,9.0,65,0.00,,,0.00,,2013-04-15 22:13:00,
2013-04-15 18:23:00,84.0,72.0,29.95,NW,316,4.0,8.0,67,0.00,,,0.00,,2013-04-15 22:23:00,
2013-04-15 18:33:00,84.0,72.0,29.95,West,263,5.0,8.0,67,0.00,,,0.00,,2013-04-15 22:33:00,
2013-04-15 18:42:00,84.0,72.0,29.95,West,263,5.0,8.0,67,0.00,,,0.00,,2013-04-15 22:42:00,
2013-04-15 18:52:00,83.0,72.0,29.95,WNW,292,4.0,10.0,69,0.00,,,0.00,,2013-04-15 22:52:00,
2013-04-15 19:02:00,82.0,71.0,29.96,West,271,4.0,8.0,70,0.00,,,0.00,,2013-04-15 23:02:00,
2013-04-15 19:12:00,82.0,71.0,29.96,West,271,4.0,8.0,70,0.00,,,0.00,,2013-04-15 23:12:00,
2013-04-15 19:22:00,82.0,72.0,29.96,SW,215,3.0,8.0,71,0.00,,,0.00,,2013-04-15 23:22:00,
2013-04-15 19:32:00,81.0,72.0,29.96,West,266,4.0,7.0,73,0.00,,,0.00,,2013-04-15 23:32:00,
2013-04-15 19:42:00,81.0,72.0,29.96,West,266,4.0,7.0,73,0.00,,,0.00,,2013-04-15 23:42:00,
2013-04-15 19:52:00,81.0,72.0,29.97,West,272,3.0,7.0,73,0.00,,,0.00,,2013-04-15 23:52:00,
2013-04-15 20:02:00,80.0,72.0,29.98,WSW,246,2.0,7.0,76,0.00,,,0.00,,2013-04-16 00:02:00,
2013-04-15 20:12:00,80.0,72.0,29.98,WSW,246,2.0,7.0,76,0.00,,,0.00,,2013-04-16 00:12:00,
2013-04-15 20:22:00,79.0,71.0,29.98,West,263,0.0,5.0,76,0.00,,,0.00,,2013-04-16 00:22:00,
2013-04-15 20:32:00,79.0,71.0,29.99,West,270,1.0,5.0,76,0.00,,,0.00,,2013-04-16 00:32:00,
2013-04-15 20:42:00,79.0,71.0,29.99,West,270,1.0,5.0,76,0.00,,,0.00,,2013-04-16 00:42:00,
2013-04-15 20:52:00,78.0,70.0,29.99,West,279,1.0,4.0,77,0.00,,,0.00,,2013-04-16 00:52:00,
2013-04-15 21:02:00,78.0,71.0,30.00,WSW,254,0.0,3.0,78,0.00,,,0.00,,2013-04-16 01:02:00,
2013-04-15 21:12:00,78.0,71.0,30.00,West,265,1.0,3.0,79,0.00,,,0.00,,2013-04-16 01:12:00,
2013-04-15 21:22:00,78.0,71.0,30.00,West,265,1.0,3.0,79,0.00,,,0.00,,2013-04-16 01:22:00,
2013-04-15 21:32:00,78.0,71.0,30.01,WNW,284,0.0,4.0,80,0.00,,,0.00,,2013-04-16 01:32:00,
2013-04-15 21:42:00,78.0,71.0,30.01,WNW,284,0.0,4.0,80,0.00,,,0.00,,2013-04-16 01:42:00,
2013-04-15 21:52:00,78.0,71.0,30.01,WNW,296,0.0,4.0,80,0.00,,,0.00,,2013-04-16 01:52:00,
2013-04-15 22:02:00,77.0,70.0,30.02,West,272,1.0,4.0,80,0.00,,,0.00,,2013-04-16 02:02:00,
2013-04-15 22:12:00,77.0,70.0,30.02,West,272,1.0,4.0,80,0.00,,,0.00,,2013-04-16 02:12:00,
2013-04-15 22:22:00,77.0,70.0,30.03,NW,317,0.0,1.0,80,0.00,,,0.00,,2013-04-16 02:22:00,
2013-04-15 22:32:00,77.0,70.0,30.04,East,94,0.0,1.0,80,0.00,,,0.00,,2013-04-16 02:32:00,
2013-04-15 22:42:00,77.0,70.0,30.04,East,94,0.0,1.0,80,0.00,,,0.00,,2013-04-16 02:42:00,
2013-04-15 22:52:00,76.0,70.0,30.05,East,94,0.0,0.0,81,0.00,,,0.00,,2013-04-16 02:52:00,
2013-04-15 23:02:00,76.0,70.0,30.05,NE,48,0.0,1.0,82,0.00,,,0.00,,2013-04-16 03:02:00,
2013-04-15 23:12:00,76.0,70.0,30.05,NE,48,0.0,1.0,82,0.00,,,0.00,,2013-04-16 03:12:00,
2013-04-15 23:22:00,76.0,70.0,30.05,NE,48,0.0,0.0,83,0.00,,,0.00,,2013-04-16 03:22:00,
2013-04-15 23:33:00,76.0,70.0,30.05,NE,48,0.0,0.0,83,0.00,,,0.00,,2013-04-16 03:33:00,
2013-04-15 23:43:00,76.0,70.0,30.05,NE,48,0.0,0.0,83,0.00,,,0.00,,2013-04-16 03:43:00,
2013-04-15 23:53:00,76.0,71.0,30.05,NE,48,0.0,0.0,84,0.00,,,0.00,,2013-04-16 03:53:00,